Location: Newark
(41.4000°N, 14.1833°E)
Time: 10:33:30
(UTC+00:00)

Envisat - Visible Passes

Search period start: 27 January 2020 00:00
Search period end: 06 February 2020 00:00
Orbit: 764 x 766 km, 98.1° (Epoch: 26 January)

Date Brightness Start Highest point End Pass type
(mag) Time Alt. Az. Time Alt. Az. Time Alt. Az.
27 Jan 5.1 05:00:43 10° NE 05:05:12 30° E 05:09:38 10° SSE visible
27 Jan 5.4 17:55:01 10° SSW 17:59:03 24° W 18:03:08 10° NW visible
28 Jan 6.2 04:25:34 10° ENE 04:28:04 14° E 04:30:34 10° ESE visible
28 Jan 3.9 17:17:08 10° S 17:22:04 52° W 17:27:03 10° NNW visible
29 Jan 3.9 05:25:49 10° NNE 05:30:48 53° E 05:35:45 10° S visible
29 Jan 3.0 16:40:15 10° SSE 16:45:17 70° ENE 16:50:21 10° N visible
29 Jan 6.2 18:22:23 10° WSW 18:24:49 13° W 18:27:14 10° WNW visible
30 Jan 5.5 04:49:43 10° NE 04:53:50 24° E 04:57:54 10° SSE visible
30 Jan 5.1 17:43:16 10° SSW 17:47:41 30° W 17:52:08 10° NW visible
31 Jan 6.5 04:15:52 10° ENE 04:16:38 10° E 04:17:25 10° E visible
31 Jan 3.5 17:05:43 10° S 17:10:45 67° WSW 17:15:50 10° NNW visible
01 Feb 4.5 05:14:38 10° NNE 05:19:29 42° E 05:24:16 10° S visible
01 Feb 6.0 18:10:06 10° SW 18:13:23 17° W 18:16:41 10° NW visible
02 Feb 5.9 04:38:50 10° NE 04:42:26 19° E 04:46:00 10° SE visible
02 Feb 4.6 17:31:38 10° SSW 17:36:19 38° W 17:41:03 10° NNW visible
03 Feb 3.3 05:39:55 10° NNE 05:45:01 75° ESE 05:50:05 10° S visible
03 Feb 3.1 16:54:23 10° SSE 16:59:27 85° WSW 17:04:34 10° NNW visible
04 Feb 4.9 05:03:32 10° NNE 05:08:07 33° E 05:12:40 10° SSE visible
04 Feb 5.6 17:58:08 10° SW 18:01:59 22° W 18:05:52 10° NW visible
05 Feb 6.2 04:28:08 10° NE 04:31:01 15° E 04:33:53 10° SE visible
05 Feb 4.1 17:20:06 10° S 17:24:59 48° W 17:29:54 10° NNW visible
